TimeCDT,TemperatureF,Dew PointF,Humidity,Sea Level PressureIn,VisibilityMPH,Wind Direction,Wind SpeedMPH,Gust SpeedMPH,PrecipitationIn,Events,Conditions,WindDirDegrees,DateUTC
12:53 AM,55.9,54.0,93,30.10,10.0,Calm,Calm,-,N/A,,Clear,0,2013-07-29 05:53:00
1:53 AM,55.9,53.1,90,30.10,10.0,Calm,Calm,-,N/A,,Clear,0,2013-07-29 06:53:00
2:53 AM,55.9,53.1,90,30.10,10.0,Calm,Calm,-,N/A,,Clear,0,2013-07-29 07:53:00
3:53 AM,54.0,51.1,90,30.11,10.0,Calm,Calm,-,N/A,,Clear,0,2013-07-29 08:53:00
4:53 AM,55.0,51.1,86,30.12,10.0,Calm,Calm,-,N/A,,Clear,0,2013-07-29 09:53:00
5:53 AM,53.1,51.1,93,30.13,10.0,Calm,Calm,-,0.01,,Clear,0,2013-07-29 10:53:00
6:53 AM,57.0,54.0,89,30.15,10.0,Calm,Calm,-,N/A,,Clear,0,2013-07-29 11:53:00
7:53 AM,63.0,52.0,67,30.16,10.0,ENE,5.8,-,N/A,,Clear,60,2013-07-29 12:53:00
8:53 AM,66.0,52.0,60,30.18,10.0,NE,5.8,-,N/A,,Clear,40,2013-07-29 13:53:00
9:53 AM,68.0,52.0,56,30.20,10.0,Variable,3.5,-,N/A,,Clear,0,2013-07-29 14:53:00
10:53 AM,71.1,51.1,49,30.19,10.0,East,8.1,-,N/A,,Clear,80,2013-07-29 15:53:00
11:53 AM,73.0,50.0,44,30.19,10.0,ENE,8.1,-,N/A,,Clear,70,2013-07-29 16:53:00
12:53 PM,75.0,50.0,41,30.18,10.0,Calm,Calm,-,N/A,,Clear,0,2013-07-29 17:53:00
1:53 PM,75.9,50.0,40,30.18,10.0,Variable,3.5,-,N/A,,Clear,0,2013-07-29 18:53:00
2:53 PM,75.0,51.1,43,30.18,10.0,Calm,Calm,-,N/A,,Clear,0,2013-07-29 19:53:00
3:53 PM,75.9,53.1,45,30.17,10.0,North,4.6,-,N/A,,Clear,10,2013-07-29 20:53:00
4:53 PM,75.9,54.0,46,30.17,10.0,North,5.8,-,N/A,,Clear,360,2013-07-29 21:53:00
5:53 PM,75.0,54.0,48,30.17,10.0,NNE,3.5,-,N/A,,Clear,20,2013-07-29 22:53:00
6:53 PM,72.0,57.9,61,30.18,10.0,North,3.5,-,N/A,,Clear,350,2013-07-29 23:53:00
7:53 PM,69.1,59.0,70,30.19,10.0,North,4.6,-,N/A,,Clear,360,2013-07-30 00:53:00
8:53 PM,66.9,57.9,73,30.20,10.0,NNE,3.5,-,N/A,,Clear,30,2013-07-30 01:53:00
9:53 PM,63.0,57.9,84,30.22,10.0,Calm,Calm,-,N/A,,Clear,0,2013-07-30 02:53:00
10:53 PM,62.1,57.9,86,30.21,10.0,Calm,Calm,-,N/A,,Clear,0,2013-07-30 03:53:00
11:53 PM,61.0,57.9,90,30.22,10.0,Calm,Calm,-,N/A,,Clear,0,2013-07-30 04:53:00